Regional Weather Roundup
Issued by NWS Northern Indiana

Home | Current Version | Previous Version | Text Only | Print | Product List | Glossary On
Versions: 1 2 3 4 5 6 7 8 9 10 11 12 13 14 15 16 17 18 19 20 21 22 23 24 25 26 27 28 29 30 31 32 33 34 35 36 37 38 39 40 41 42 43 44 45 46 47 48 49 50
324
ASUS43 KIWX 231710
RWRIWX

KIWX WEATHER ROUNDUP
NATIONAL WEATHER SERVICE NORTHERN INDIANA
100 PM EDT SAT JUL 23 2016

NOTE: "FAIR" INDICATES FEW OR NO CLOUDS BELOW 12,000 FEET WITH NO
SIGNIFICANT WEATHER AND/OR OBSTRUCTIONS TO VISIBILITY.

* THESE STATIONS ARE NOT UNDER NWS QUALITY CONTROL. THEY ALSO MAY NOT
  REPORT WEATHER SUCH AS PRECIPITATION OR FOG.

INZ001>027-231800-
NORTHERN INDIANA

CITY           SKY/WX    TMP DP  RH WIND       PRES   REMARKS
GARY*          PTSUNNY   86 N/A N/A N7        29.99F
VALPARAISO     PTSUNNY   88  76  67 S3        30.01S HX  99
MICHIGAN CITY* MOSUNNY   88  77  70 N6        30.01S HX 100
LAPORTE*       MOSUNNY   87  80  79 CALM      30.01F HX 103
KNOX*          PTSUNNY   86  70  58 NW3       30.00S
SOUTH BEND     SUNNY     88  73  61 CALM      30.01S HX  95
ELKHART*       MOSUNNY   86  75  70 CALM      30.02R HX  95
GOSHEN         PTSUNNY   88  66  48 VRB3      30.02R
MONTICELLO*    CLOUDY    86  71  60 W3        30.01S
LOGANSPORT*    MOSUNNY   86  72  62 S3        30.03F
ROCHESTER*     PTSUNNY   88  77  70 CALM      30.02S HX 100
WARSAW*        CLOUDY    86  72  62 N5        30.02S
ANGOLA*          N/A     88  82  84 N3        30.03R HX 108
FORT WAYNE     PTSUNNY   89  72  56 VRB7      30.03R HX  96
HUNTINGTON*    MOSUNNY  N/A N/A N/A SW3       30.02S
PERU/GRISSOM   CLOUDY    87  73  63 SW7       30.01S
MARION*        MOSUNNY   85  73  67 CALM      30.03F

$$
INZ028>050-231800-
CENTRAL INDIANA

CITY           SKY/WX    TMP DP  RH WIND       PRES   REMARKS
LAFAYETTE      CLOUDY    86  76  71 VRB6      30.01S HX  96
KOKOMO*        CLOUDY    88  72  58 NW7       30.02F
MUNCIE*        PTSUNNY   86  73  65 NW6       30.04R
INDIANAPOLIS   PTSUNNY   87  72  60 W7        30.03S

$$
MIZ043>046-050>051-056>058-064>065-071>073-077>080-231800-
SOUTHWEST LOWER MICHIGAN

CITY           SKY/WX    TMP DP  RH WIND       PRES   REMARKS
BATTLE CREEK   SUNNY     86  65  49 CALM      30.02S
BENTON HARBOR  SUNNY     89  73  59 W5        30.00S HX  97
COLDWATER*     SUNNY     86  63  45 CALM      30.02S
HOLLAND        SUNNY     89  72  56 VRB6      30.01S HX  96
GRAND RAPIDS   PTSUNNY   91  61  36 E7        30.00F
KALAMAZOO      SUNNY     89  68  49 CALM      30.02R
STURGIS*       SUNNY     86  63  45 CALM      30.01F
THREE RIVERS*  FAIR      88  62  42 CALM      30.02F

$$
OHZ001>008-015>018-024>025-231800-
NORTHWEST OHIO

CITY           SKY/WX    TMP DP  RH WIND       PRES   REMARKS
WAUSEON*       FAIR      88  72  58 CALM      30.02R
DEFIANCE       SUNNY     88  70  55 VRB5      30.02R
FINDLAY        CLOUDY    87  70  56 W10       30.01R
TOLEDO EXPRESS SUNNY     88  70  55 CALM      30.01R
TOLEDO METCALF SUNNY     90  69  50 MISG      30.00R
LIMA           PTSUNNY   85  73  67 W6        30.03R

$$
AND FOR LAKE MICHIGAN COASTAL AND OPEN LAKE BUOY OBSERVATIONS

STATION/POSITION TEMP    WIND        PRES    VSBY  WAVE
                 AIR SEA DIR/SP/G                  HT/PER
                 (F)     (DEG/KT/KT) (MB)    (MI)  (FT/S)
CALUMET HARBOR    82      50/  5/  6 1015.2R
MICHIGAN CITY     81     290/  4/  5   N/A
BURNS HARBOR      80      10/  3/  4 1016.3R
SAINT JOSEPH      83     230/  3/  4 1016.9F
SOUTH LAKE BUOY   77 78  150/  4/  6 1015.1S         0
4 MI NW BRIDGMAN  77 76  300/  4/  4 1015.6F         0
MICHIGAN CITY     80 78  320/  2/  2   N/A           0

$$
&&




USA.gov is the U.S. government's official web portal to all federal, state and local government web resources and services.